(178967) = 2001 QB229

Discovered at Anderson Mesa on 2001-08-24 by LONEOS.

Orbit

Orbit type: Main Belt

Note: WebGL enabled browser required.

epoch2024-03-31.0
epoch JD2460400.5
perihelion date2020-09-05.04929
perihelion JD2459097.54929
argument of perihelion (°)261.08030
ascending node (°)306.87200
inclination (°)12.67911
eccentricity0.0586198
perihelion distance (AU)2.4126632
Tisserand w.r.t. Jupiter3.4
ΔV w.r.t. Earth (km/sec)10.5
semimajor axis (AU)2.5628998
mean anomaly (°)312.99283
mean daily motion (°/day)0.24021850
aphelion distance (AU)2.713
period (years)4.1
P-vector [x]-0.86406626
P-vector [y]-0.33054264
P-vector [z]-0.37964597
Q-vector [x]0.47176109
Q-vector [y]-0.79482823
Q-vector [z]-0.38169302
absolute magnitude15.39
phase slope0.15
uncertainty0
referenceMPEC 2024-F07
observations used930
oppositions18
arc length (days)8248
first opposition used2001
last opposition used2024
residual rms (arc-secs)0.79
perturbers coarse indicatorM-v
perturbers precise indicator003Ek
first observation date used2001-08-16.0
last observation date used2024-03-15.0
computer nameMPCLINUX
JD of orbit computation2456966.884628
perihelion JD uncertainty (days)1.6364E-04
argument of perihelion uncertainty (°)4.1543E-05
ascending node uncertainty (°)1.9754E-05
inclination uncertainty (°)4.7757E-06
eccentricity uncertainty 5.5267E-08
perihelion distance uncertainty (AU)1.5203E-07
Minimum Orbit Intersection Distances (in AU)
for orbit epoch: 2460400.5, reference: E2024-G77
Mercury1.9775
Venus1.72529
Earth1.44881
Mars0.84641
Jupiter2.37656
Saturn6.45626
Uranus15.998
Neptune27.2029

Observations

958 total observations over interval: 2001 08 16.38044 – 2024 03 15.894283
These data are available for download (format description).

Date (UT) J2000 RA J2000 Dec Magn Location Ref
2001 08 16.38044 23 12 04.96 +06 56 05.9 19.1   644 – Palomar Mountain/NEAT MPS 37860
2001 08 16.39091 23 12 04.44 +06 56 07.2 19.3   644 – Palomar Mountain/NEAT MPS 37860
2001 08 16.40312 23 12 03.83 +06 56 08.2 19.0   644 – Palomar Mountain/NEAT MPS 37860
2001 08 24.30932 23 05 22.21 +07 01 58.0 18.6 R 699 – Lowell Observatory-LONEOS MPS 34870
2001 08 24.34171 23 05 20.37 +07 01 59.1   699 – Lowell Observatory-LONEOS MPS 34870
2001 08 24.36922 23 05 18.79 +07 01 57.9   699 – Lowell Observatory-LONEOS MPS 34870
2001 08 24.39678 23 05 17.34 +07 01 58.2   699 – Lowell Observatory-LONEOS MPS 34870
2001 08 25.27661 23 04 29.47 +07 01 55.4 19.6   704 – Lincoln Laboratory ETS, New Mexico MPS 34870
2001 08 25.28959 23 04 28.78 +07 01 55.4 19.6   704 – Lincoln Laboratory ETS, New Mexico MPS 34870
2001 08 25.30259 23 04 28.05 +07 01 55.2 19.8   704 – Lincoln Laboratory ETS, New Mexico MPS 34870
2001 08 25.31564 23 04 27.29 +07 01 55.1 19.3   704 – Lincoln Laboratory ETS, New Mexico MPS 34870
2001 08 25.32864 23 04 26.58 +07 01 54.4 19.9   704 – Lincoln Laboratory ETS, New Mexico MPS 34870
2001 08 31.04389 22 59 04.20 +06 58 17.3   557 – Ondrejov MPS 34870
2001 08 31.05346 22 59 03.58 +06 58 15.9 19.2 V 557 – Ondrejov MPS 34870
2001 09 09.28230 22 50 06.72 +06 41 45.7 18.7 R 699 – Lowell Observatory-LONEOS MPS 34870
2001 09 09.29479 22 50 06.01 +06 41 44.5   699 – Lowell Observatory-LONEOS MPS 34870
2001 09 09.30731 22 50 05.37 +06 41 42.4   699 – Lowell Observatory-LONEOS MPS 34870
2001 09 09.31983 22 50 04.53 +06 41 41.5   699 – Lowell Observatory-LONEOS MPS 34870
2001 09 16.29316 22 43 30.75 +06 22 06.9 18.9   704 – Lincoln Laboratory ETS, New Mexico MPS 36114
2001 09 16.30750 22 43 29.93 +06 22 03.8 19.3   704 – Lincoln Laboratory ETS, New Mexico MPS 36114
2001 09 16.32183 22 43 29.12 +06 22 01.3 19.3   704 – Lincoln Laboratory ETS, New Mexico MPS 36114
2001 09 16.33617 22 43 28.31 +06 21 58.6 18.9   704 – Lincoln Laboratory ETS, New Mexico MPS 36114
2001 09 16.35143 22 43 27.44 +06 21 56.0 18.8   704 – Lincoln Laboratory ETS, New Mexico MPS 36114
2001 09 21.11811 22 39 17.28 +06 06 05.5 19.4 R 699 – Lowell Observatory-LONEOS MPS 36114
2001 09 21.13988 22 39 16.07 +06 06 01.6   699 – Lowell Observatory-LONEOS MPS 36114
2001 09 21.16173 22 39 14.93 +06 05 57.9   699 – Lowell Observatory-LONEOS MPS 36114
2001 09 21.18363 22 39 13.88 +06 05 51.6   699 – Lowell Observatory-LONEOS MPS 36114
2001 09 25.18248 22 36 00.59 +05 51 39.2 19.4   704 – Lincoln Laboratory ETS, New Mexico MPS 49395
2001 09 25.19707 22 35 59.88 +05 51 35.5 19.9   704 – Lincoln Laboratory ETS, New Mexico MPS 49395
2001 09 25.21194 22 35 59.12 +05 51 31.7 19.6   704 – Lincoln Laboratory ETS, New Mexico MPS 49395
2001 09 25.22656 22 35 58.54 +05 51 28.5 20.2   704 – Lincoln Laboratory ETS, New Mexico MPS 49395
2001 09 25.24205 22 35 57.68 +05 51 24.5 19.5   704 – Lincoln Laboratory ETS, New Mexico MPS 49395
2002 12 05.29892 06 22 38.39 +36 16 51.6 18.9   704 – Lincoln Laboratory ETS, New Mexico MPS 106154
2002 12 05.31427 06 22 37.45 +36 16 51.8 19.6   704 – Lincoln Laboratory ETS, New Mexico MPS 106154
2002 12 05.32951 06 22 36.51 +36 16 50.8 19.6   704 – Lincoln Laboratory ETS, New Mexico MPS 106154
2002 12 05.34473 06 22 35.52 +36 16 50.3 19.6   704 – Lincoln Laboratory ETS, New Mexico MPS 106154
2002 12 05.35997 06 22 34.59 +36 16 50.1 19.7   704 – Lincoln Laboratory ETS, New Mexico MPS 106154
2002 12 15.29793 06 11 32.86 +36 01 24.1 19.3   704 – Lincoln Laboratory ETS, New Mexico MPS 103019
2002 12 15.31318 06 11 31.84 +36 01 23.5 19.4   704 – Lincoln Laboratory ETS, New Mexico MPS 103019
2002 12 15.32842 06 11 30.69 +36 01 20.4 19.2   704 – Lincoln Laboratory ETS, New Mexico MPS 103019
2002 12 15.35892 06 11 28.45 +36 01 15.7 19.3   704 – Lincoln Laboratory ETS, New Mexico MPS 103019
2004 03 16.36612 14 03 14.26 -32 15 43.2 18.7   644 – Palomar Mountain/NEAT MPS 103019
2004 03 16.38751 14 03 13.66 -32 15 51.4 19.2   644 – Palomar Mountain/NEAT MPS 103019
2004 03 16.40959 14 03 13.06 -32 15 59.2 18.8   644 – Palomar Mountain/NEAT MPS 103019
2004 04 01.57742 13 52 40.47 -33 15 38.5 18.5 R E12 – Siding Spring Survey MPS 103019
2004 04 01.59623 13 52 39.46 -33 15 40.0   E12 – Siding Spring Survey MPS 103019
2004 04 01.60785 13 52 38.76 -33 15 42.2 18.8 R E12 – Siding Spring Survey MPS 103019
2004 04 01.61928 13 52 38.14 -33 15 42.9 18.7 R E12 – Siding Spring Survey MPS 103019
2004 04 13.76184 13 41 01.32 -33 11 37.5 18.6 R E12 – Siding Spring Survey MPS 104225
2004 04 13.77205 13 41 00.65 -33 11 35.4 18.5 R E12 – Siding Spring Survey MPS 104225
2004 04 13.78226 13 41 00.02 -33 11 34.4 18.5 R E12 – Siding Spring Survey MPS 104225
2004 04 13.79249 13 40 59.38 -33 11 33.1 18.3 R E12 – Siding Spring Survey MPS 104225
2004 04 15.52559 13 39 13.20 -33 07 21.2 18.1 R E12 – Siding Spring Survey MPS 105003
2004 04 15.53604 13 39 12.53 -33 07 19.6 18.4 R E12 – Siding Spring Survey MPS 105003
2004 04 15.54645 13 39 11.90 -33 07 18.6 18.6 R E12 – Siding Spring Survey MPS 105003
2004 04 15.55681 13 39 11.23 -33 07 17.2 15.2 R E12 – Siding Spring Survey MPS 105003
2004 04 15.65682 13 39 04.85 -33 07 00.1 17.6 R E12 – Siding Spring Survey MPS 105003
2004 04 15.66725 13 39 04.08 -33 06 58.2 18.6 R E12 – Siding Spring Survey MPS 105003
2004 04 15.67764 13 39 03.39 -33 06 56.9 18.4 R E12 – Siding Spring Survey MPS 105003
2004 04 15.68794 13 39 02.75 -33 06 54.9 18.2 R E12 – Siding Spring Survey MPS 105003
2004 04 16.46715 13 38 15.08 -33 04 41.8 18.1 R E12 – Siding Spring Survey MPS 105003
2004 04 16.46830 13 38 15.02 -33 04 39.6 18.2 R E12 – Siding Spring Survey MPS 105003
2004 04 16.47404 13 38 14.57 -33 04 39.8 17.9 R E12 – Siding Spring Survey MPS 105003
2004 04 16.47517 13 38 14.62 -33 04 39.1 18.3 R E12 – Siding Spring Survey MPS 105003
2004 04 16.48093 13 38 14.14 -33 04 38.5 18.2 R E12 – Siding Spring Survey MPS 105003
2004 04 16.48207 13 38 14.12 -33 04 37.4 18.1 R E12 – Siding Spring Survey MPS 105003
2004 04 16.48781 13 38 13.72 -33 04 37.7 18.3 R E12 – Siding Spring Survey MPS 105003
2004 04 16.48898 13 38 13.68 -33 04 36.3 18.4 R E12 – Siding Spring Survey MPS 105003
2004 05 11.56178 13 15 37.52 -30 38 33.5 17.5 R E12 – Siding Spring Survey MPS 106696
2004 05 11.57196 13 15 37.14 -30 38 28.4 17.6 R E12 – Siding Spring Survey MPS 106696
2004 05 11.58214 13 15 36.74 -30 38 23.4 18.5 R E12 – Siding Spring Survey MPS 106696
2004 05 11.59233 13 15 36.31 -30 38 18.5 18.0 R E12 – Siding Spring Survey MPS 106696
2005 08 26.34122 22 16 50.25 -00 19 00.0 18.9   644 – Palomar Mountain/NEAT MPS 140083
2005 08 26.36250 22 16 48.95 -00 19 01.5 18.9   644 – Palomar Mountain/NEAT MPS 140083
2005 08 26.38394 22 16 47.64 -00 19 03.0 18.9   644 – Palomar Mountain/NEAT MPS 140083
2005 08 31.24202 22 12 01.13 -00 25 52.1 18.6   704 – Lincoln Laboratory ETS, New Mexico MPS 140083
2005 08 31.25300 22 12 00.49 -00 25 53.3 19.2   704 – Lincoln Laboratory ETS, New Mexico MPS 140083
2005 08 31.26398 22 11 59.82 -00 25 55.0 19.1   704 – Lincoln Laboratory ETS, New Mexico MPS 140083
2005 09 03.229017 22 09 08.510 -00 31 00.79 20.02 V 645 – Apache Point-Sloan Digital Sky Survey MPS 390152
2005 09 03.232489 22 09 08.301 -00 31 01.28 19.54   645 – Apache Point-Sloan Digital Sky Survey MPS 390152
2005 09 09.238427 22 03 37.783 -00 42 59.04 19.35 V 645 – Apache Point-Sloan Digital Sky Survey MPS 390152
2005 09 09.241899 22 03 37.591 -00 42 59.48 20.27   645 – Apache Point-Sloan Digital Sky Survey MPS 390152
2005 09 12.232627 22 01 04.443 -00 49 28.27 19.36 V 645 – Apache Point-Sloan Digital Sky Survey MPS 390152
2005 09 12.236099 22 01 04.264 -00 49 28.72 20.23   645 – Apache Point-Sloan Digital Sky Survey MPS 390152
2005 09 13.199307 22 00 16.952 -00 51 36.50 19.45 V 645 – Apache Point-Sloan Digital Sky Survey MPS 390152
2005 09 13.202779 22 00 16.776 -00 51 36.98 20.34   645 – Apache Point-Sloan Digital Sky Survey MPS 390152
2005 09 15.183087 21 58 42.666 -00 56 01.81 19.39 V 645 – Apache Point-Sloan Digital Sky Survey MPS 390152
2005 09 15.186559 21 58 42.499 -00 56 02.33 20.28   645 – Apache Point-Sloan Digital Sky Survey MPS 390152
